Time,TemperatureF,DewpointF,PressureIn,WindDirection,WindDirectionDegrees,WindSpeedMPH,WindSpeedGustMPH,Humidity,HourlyPrecipIn,Conditions,Clouds,dailyrainin,SolarRadiationWatts/m^2,SoftwareType,DateUTC
2013-06-09 00:01:00,60.9,55.7,30.04,SE,129,0.0,0.0,83,0.00,SCT,SCT,0.00,0.0,WeatherDisplay:10.37,2013-06-09 04:01:00,
2013-06-09 00:02:00,60.9,56.0,30.04,SE,129,0.0,0.0,84,0.00,SCT,,0.00,0.0,WeatherDisplay:10.37,2013-06-09 04:02:00,
2013-06-09 00:07:00,60.8,55.9,30.04,SE,129,0.0,0.0,84,0.00,SCT,,0.00,0.0,WeatherDisplay:10.37,2013-06-09 04:07:00,
2013-06-09 00:12:00,60.7,55.8,30.04,SE,129,0.0,0.0,84,0.00,SCT,,0.00,0.0,WeatherDisplay:10.37,2013-06-09 04:12:00,
2013-06-09 00:17:00,60.5,55.6,30.04,SE,129,0.0,0.0,84,0.00,SCT,,0.00,0.0,WeatherDisplay:10.37,2013-06-09 04:17:00,
2013-06-09 00:22:00,60.4,55.9,30.05,SE,129,0.0,0.0,85,0.00,SCT,,0.00,0.0,WeatherDisplay:10.37,2013-06-09 04:22:00,
2013-06-09 00:27:00,60.2,55.7,30.04,SE,129,0.0,0.0,85,0.00,SCT,,0.00,0.0,WeatherDisplay:10.37,2013-06-09 04:27:00,
2013-06-09 00:32:00,60.0,55.5,30.05,SE,129,0.0,0.0,85,0.00,SCT,,0.00,0.0,WeatherDisplay:10.37,2013-06-09 04:32:00,
2013-06-09 00:37:00,59.8,55.6,30.04,SE,129,0.0,0.0,86,0.00,SCT,,0.00,0.0,WeatherDisplay:10.37,2013-06-09 04:37:00,
2013-06-09 00:42:00,59.6,55.4,30.05,SE,129,0.0,0.0,86,0.00,SCT,,0.00,0.0,WeatherDisplay:10.37,2013-06-09 04:42:00,
2013-06-09 00:47:00,59.4,55.2,30.05,SE,129,0.0,0.0,86,0.00,SCT,,0.00,0.0,WeatherDisplay:10.37,2013-06-09 04:47:00,
2013-06-09 00:52:00,59.3,55.4,30.05,SE,129,0.0,0.0,87,0.00,SCT,,0.00,0.0,WeatherDisplay:10.37,2013-06-09 04:52:00,
2013-06-09 00:57:00,59.1,55.2,30.05,SE,129,0.0,0.0,87,0.00,SCT,,0.00,0.0,WeatherDisplay:10.37,2013-06-09 04:57:00,
2013-06-09 01:02:00,58.9,55.0,30.05,SE,129,0.0,0.0,87,0.00,SCT,,0.00,0.0,WeatherDisplay:10.37,2013-06-09 05:02:00,
2013-06-09 01:07:00,58.7,54.8,30.05,SE,129,0.0,0.0,87,0.00,SCT,,0.00,0.0,WeatherDisplay:10.37,2013-06-09 05:07:00,
2013-06-09 01:12:00,58.6,54.7,30.05,SE,129,0.0,0.0,87,0.00,SCT,,0.00,0.0,WeatherDisplay:10.37,2013-06-09 05:12:00,
2013-06-09 01:17:00,58.4,54.5,30.05,SE,129,0.0,0.0,87,0.00,SCT,,0.00,0.0,WeatherDisplay:10.37,2013-06-09 05:17:00,
2013-06-09 01:22:00,58.3,54.8,30.05,SE,129,0.0,0.0,88,0.00,SCT,,0.00,0.0,WeatherDisplay:10.37,2013-06-09 05:22:00,
2013-06-09 01:27:00,58.1,54.6,30.05,SE,129,0.0,0.0,88,0.00,SCT,,0.00,0.0,WeatherDisplay:10.37,2013-06-09 05:27:00,
2013-06-09 01:32:00,58.0,54.5,30.05,SE,129,0.0,0.0,88,0.00,SCT,,0.00,0.0,WeatherDisplay:10.37,2013-06-09 05:32:00,
2013-06-09 01:37:00,57.8,54.3,30.05,SE,129,0.0,0.0,88,0.00,SCT,,0.00,0.0,WeatherDisplay:10.37,2013-06-09 05:37:00,
2013-06-09 01:42:00,57.7,54.5,30.05,SE,129,0.0,0.0,89,0.00,SCT,,0.00,0.0,WeatherDisplay:10.37,2013-06-09 05:42:00,
2013-06-09 01:47:00,57.6,54.4,30.05,SE,129,0.0,0.0,89,0.00,SCT,,0.00,0.0,WeatherDisplay:10.37,2013-06-09 05:47:00,
2013-06-09 01:52:00,57.5,54.3,30.05,SE,129,0.0,0.0,89,0.00,SCT,,0.00,0.0,WeatherDisplay:10.37,2013-06-09 05:52:00,
2013-06-09 01:57:00,57.4,54.5,30.05,SE,129,0.0,0.0,90,0.00,SCT,,0.00,0.0,WeatherDisplay:10.37,2013-06-09 05:57:00,
2013-06-09 02:02:00,57.4,54.5,30.05,SE,129,0.0,0.0,90,0.00,SCT,,0.00,0.0,WeatherDisplay:10.37,2013-06-09 06:02:00,
2013-06-09 02:07:00,57.3,54.4,30.06,SE,129,0.0,0.0,90,0.00,SCT,,0.00,0.0,WeatherDisplay:10.37,2013-06-09 06:07:00,
2013-06-09 02:12:00,57.2,54.6,30.06,SE,129,0.0,0.0,91,0.00,SCT,,0.00,0.0,WeatherDisplay:10.37,2013-06-09 06:12:00,
2013-06-09 02:17:00,57.2,54.6,30.06,SE,129,0.0,0.0,91,0.00,SCT,,0.00,0.0,WeatherDisplay:10.37,2013-06-09 06:17:00,
2013-06-09 02:22:00,57.2,54.6,30.06,SE,129,0.0,0.0,91,0.00,SCT,,0.00,0.0,WeatherDisplay:10.37,2013-06-09 06:22:00,
2013-06-09 02:27:00,57.3,54.7,30.06,SE,129,0.0,0.0,91,0.00,SCT,,0.00,0.0,WeatherDisplay:10.37,2013-06-09 06:27:00,
2013-06-09 02:32:00,57.3,54.7,30.06,SE,129,0.0,0.0,91,0.00,SCT,,0.00,0.0,WeatherDisplay:10.37,2013-06-09 06:32:00,
2013-06-09 02:37:00,57.4,55.1,30.06,SE,129,0.0,0.0,92,0.00,SCT,,0.00,0.0,WeatherDisplay:10.37,2013-06-09 06:37:00,
2013-06-09 02:42:00,57.6,55.3,30.06,SE,129,0.0,0.0,92,0.00,SCT,,0.00,0.0,WeatherDisplay:10.37,2013-06-09 06:42:00,
2013-06-09 02:47:00,57.8,55.8,30.06,SE,129,0.0,0.0,93,0.00,SCT,,0.00,0.0,WeatherDisplay:10.37,2013-06-09 06:47:00,
2013-06-09 02:52:00,58.0,56.0,30.05,SE,129,0.0,0.0,93,0.00,SCT,,0.00,0.0,WeatherDisplay:10.37,2013-06-09 06:52:00,
2013-06-09 02:57:00,58.2,56.2,30.06,SE,129,0.0,0.0,93,0.00,SCT,,0.00,0.0,WeatherDisplay:10.37,2013-06-09 06:57:00,
2013-06-09 03:02:00,58.4,56.4,30.06,SE,129,0.0,0.0,93,0.00,SCT,,0.00,0.0,WeatherDisplay:10.37,2013-06-09 07:02:00,
2013-06-09 03:07:00,58.6,56.6,30.06,SE,129,0.0,0.0,93,0.00,SCT,,0.00,0.0,WeatherDisplay:10.37,2013-06-09 07:07:00,
2013-06-09 03:12:00,58.8,56.5,30.06,SE,129,0.0,0.0,92,0.00,SCT,,0.00,0.0,WeatherDisplay:10.37,2013-06-09 07:12:00,
2013-06-09 03:17:00,58.9,56.3,30.05,SE,129,0.0,0.0,91,0.00,SCT,,0.00,0.0,WeatherDisplay:10.37,2013-06-09 07:17:00,
2013-06-09 03:22:00,58.9,56.3,30.05,SE,129,0.0,0.0,91,0.00,SCT,,0.00,0.0,WeatherDisplay:10.37,2013-06-09 07:22:00,
2013-06-09 03:27:00,59.0,56.7,30.05,SE,129,0.0,0.0,92,0.00,SCT,,0.00,0.0,WeatherDisplay:10.37,2013-06-09 07:27:00,
2013-06-09 03:32:00,59.2,56.6,30.06,SE,129,0.0,0.0,91,0.00,SCT,,0.00,0.0,WeatherDisplay:10.37,2013-06-09 07:32:00,
2013-06-09 03:37:00,59.3,56.7,30.05,SE,129,0.0,0.0,91,0.00,SCT,,0.00,0.0,WeatherDisplay:10.37,2013-06-09 07:37:00,
2013-06-09 03:42:00,59.2,56.3,30.06,SE,129,0.0,0.0,90,0.00,SCT,,0.00,0.0,WeatherDisplay:10.37,2013-06-09 07:42:00,
2013-06-09 03:47:00,59.2,56.3,30.05,SE,129,0.0,0.0,90,0.00,SCT,,0.00,0.0,WeatherDisplay:10.37,2013-06-09 07:47:00,
2013-06-09 03:52:00,59.0,56.1,30.06,SE,129,0.0,0.0,90,0.00,SCT,,0.00,0.0,WeatherDisplay:10.37,2013-06-09 07:52:00,
2013-06-09 03:57:00,58.9,56.0,30.05,SE,129,0.0,0.0,90,0.00,SCT,,0.00,0.0,WeatherDisplay:10.37,2013-06-09 07:57:00,
2013-06-09 04:02:00,58.7,56.1,30.05,SE,129,0.0,0.0,91,0.00,BKN,SCT,0.00,0.0,WeatherDisplay:10.37,2013-06-09 08:02:00,
2013-06-09 04:07:00,58.5,55.9,30.05,SE,129,0.0,0.0,91,0.00,BKN,SCT,0.00,0.0,WeatherDisplay:10.37,2013-06-09 08:07:00,
2013-06-09 04:12:00,58.4,55.8,30.06,SE,129,0.0,0.0,91,0.00,BKN,SCT,0.00,0.0,WeatherDisplay:10.37,2013-06-09 08:12:00,
2013-06-09 04:17:00,58.3,56.0,30.06,SE,129,0.0,0.0,92,0.00,BKN,SCT,0.00,0.0,WeatherDisplay:10.37,2013-06-09 08:17:00,
2013-06-09 04:22:00,58.2,55.9,30.06,SE,129,0.0,0.0,92,0.00,BKN,SCT,0.00,0.0,WeatherDisplay:10.37,2013-06-09 08:22:00,
2013-06-09 04:27:00,58.1,55.8,30.06,SE,129,0.0,0.0,92,0.00,BKN,SCT,0.00,0.0,WeatherDisplay:10.37,2013-06-09 08:27:00,
2013-06-09 04:32:00,58.0,55.7,30.06,SE,129,0.0,0.0,92,0.00,BKN,SCT,0.00,0.0,WeatherDisplay:10.37,2013-06-09 08:32:00,
2013-06-09 04:37:00,57.9,55.6,30.06,SE,129,0.0,0.0,92,0.00,BKN,SCT,0.00,0.0,WeatherDisplay:10.37,2013-06-09 08:37:00,
2013-06-09 04:42:00,57.9,55.6,30.06,SE,129,0.0,0.0,92,0.00,BKN,SCT,0.00,0.0,WeatherDisplay:10.37,2013-06-09 08:42:00,
2013-06-09 04:47:00,57.8,55.5,30.06,SE,129,0.0,0.0,92,0.00,BKN,SCT,0.00,0.0,WeatherDisplay:10.37,2013-06-09 08:47:00,
2013-06-09 04:52:00,57.7,55.4,30.06,SE,129,0.0,0.0,92,0.00,BKN,SCT,0.00,0.0,WeatherDisplay:10.37,2013-06-09 08:52:00,
2013-06-09 04:57:00,57.6,55.3,30.06,SE,129,0.0,0.0,92,0.00,BKN,SCT,0.00,0.0,WeatherDisplay:10.37,2013-06-09 08:57:00,
2013-06-09 05:02:00,57.5,55.2,30.06,SE,129,0.0,0.0,92,0.00,BKN,SCT,0.00,0.0,WeatherDisplay:10.37,2013-06-09 09:02:00,
2013-06-09 05:07:00,57.4,55.1,30.07,SE,129,0.0,0.0,92,0.00,BKN,SCT,0.00,0.0,WeatherDisplay:10.37,2013-06-09 09:07:00,
2013-06-09 05:12:00,57.4,55.1,30.07,SE,129,0.0,0.0,92,0.00,BKN,SCT,0.00,0.0,WeatherDisplay:10.37,2013-06-09 09:12:00,
2013-06-09 05:17:00,57.3,55.0,30.06,SE,129,0.0,0.0,92,0.00,BKN,SCT,0.00,0.0,WeatherDisplay:10.37,2013-06-09 09:17:00,
2013-06-09 05:22:00,57.3,55.0,30.06,SE,129,0.0,0.0,92,0.00,BKN,SCT,0.00,0.0,WeatherDisplay:10.37,2013-06-09 09:22:00,
2013-06-09 05:27:00,57.2,55.2,30.06,SE,129,0.0,0.0,93,0.00,BKN,SCT,0.00,0.0,WeatherDisplay:10.37,2013-06-09 09:27:00,
2013-06-09 05:32:00,57.2,55.2,30.06,SE,129,0.0,0.0,93,0.00,BKN,SCT,0.00,0.0,WeatherDisplay:10.37,2013-06-09 09:32:00,
2013-06-09 05:37:00,57.2,55.2,30.06,SE,129,0.0,0.0,93,0.00,BKN,SCT,0.00,0.0,WeatherDisplay:10.37,2013-06-09 09:37:00,
2013-06-09 05:42:00,57.2,55.2,30.06,SE,129,0.0,0.0,93,0.00,BKN,SCT,0.00,0.0,WeatherDisplay:10.37,2013-06-09 09:42:00,
2013-06-09 05:47:00,57.2,55.2,30.07,SE,129,0.0,0.0,93,0.00,BKN,SCT,0.00,0.0,WeatherDisplay:10.37,2013-06-09 09:47:00,
2013-06-09 05:52:00,57.3,55.3,30.07,SE,129,0.0,0.0,93,0.00,BKN,SCT,0.00,0.0,WeatherDisplay:10.37,2013-06-09 09:52:00,
2013-06-09 05:57:00,57.4,55.4,30.07,SE,129,0.0,0.0,93,0.00,BKN,SCT,0.00,0.0,WeatherDisplay:10.37,2013-06-09 09:57:00,
2013-06-09 06:02:00,57.5,55.5,30.07,SE,129,0.0,0.0,93,0.00,BKN,SCT,0.00,0.0,WeatherDisplay:10.37,2013-06-09 10:02:00,
2013-06-09 06:07:00,57.7,55.7,30.07,SE,129,0.0,0.0,93,0.00,BKN,SCT,0.00,0.0,WeatherDisplay:10.37,2013-06-09 10:07:00,
2013-06-09 06:12:00,57.9,55.6,30.06,SE,129,0.0,0.0,92,0.00,BKN,SCT,0.00,0.0,WeatherDisplay:10.37,2013-06-09 10:12:00,
2013-06-09 06:17:00,58.0,55.7,30.06,SE,129,0.0,0.0,92,0.00,BKN,SCT,0.00,0.0,WeatherDisplay:10.37,2013-06-09 10:17:00,
2013-06-09 06:22:00,58.1,55.8,30.06,SE,129,0.0,0.0,92,0.00,BKN,SCT,0.00,5.0,WeatherDisplay:10.37,2013-06-09 10:22:00,
2013-06-09 06:27:00,58.2,55.9,30.06,SE,129,0.0,0.0,92,0.00,BKN,SCT,0.00,7.0,WeatherDisplay:10.37,2013-06-09 10:27:00,
2013-06-09 06:32:00,58.3,56.0,30.07,SE,129,0.0,0.0,92,0.00,BKN,SCT,0.00,11.0,WeatherDisplay:10.37,2013-06-09 10:32:00,
2013-06-09 06:37:00,58.5,55.9,30.07,SE,129,0.0,0.0,91,0.00,BKN,SCT,0.00,12.0,WeatherDisplay:10.37,2013-06-09 10:37:00,
2013-06-09 06:42:00,58.6,56.0,30.07,SE,129,0.0,0.0,91,0.00,BKN,SCT,0.00,19.0,WeatherDisplay:10.37,2013-06-09 10:42:00,
2013-06-09 06:47:00,58.7,56.1,30.08,SE,129,0.0,0.0,91,0.00,BKN,SCT,0.00,19.0,WeatherDisplay:10.37,2013-06-09 10:47:00,
2013-06-09 06:52:00,59.0,56.1,30.08,SE,129,0.0,0.0,90,0.00,BKN,SCT,0.00,26.0,WeatherDisplay:10.37,2013-06-09 10:52:00,
2013-06-09 06:57:00,59.4,56.2,30.08,SE,129,0.3,1.2,89,0.00,BKN,SCT,0.00,30.0,WeatherDisplay:10.37,2013-06-09 10:57:00,
2013-06-09 07:02:00,59.7,56.5,30.08,SE,129,0.0,0.0,89,0.00,BKN,SCT,0.00,32.0,WeatherDisplay:10.37,2013-06-09 11:02:00,
2013-06-09 07:07:00,59.9,56.3,30.08,SE,129,0.0,0.0,88,0.00,BKN,SCT,0.00,35.0,WeatherDisplay:10.37,2013-06-09 11:07:00,
2013-06-09 07:12:00,60.0,56.4,30.08,SE,129,0.0,0.0,88,0.00,BKN,SCT,0.00,37.0,WeatherDisplay:10.37,2013-06-09 11:12:00,
2013-06-09 07:17:00,60.1,56.8,30.08,SE,129,0.0,0.0,89,0.00,BKN,SCT,0.00,42.0,WeatherDisplay:10.37,2013-06-09 11:17:00,
2013-06-09 07:22:00,60.2,56.6,30.08,SE,129,0.0,0.0,88,0.00,BKN,SCT,0.00,49.0,WeatherDisplay:10.37,2013-06-09 11:22:00,
2013-06-09 07:27:00,60.3,56.7,30.08,SE,132,0.0,0.0,88,0.00,BKN,SCT,0.00,49.0,WeatherDisplay:10.37,2013-06-09 11:27:00,
2013-06-09 07:32:00,60.4,56.5,30.08,SE,132,0.0,0.0,87,0.00,BKN,SCT,0.00,60.0,WeatherDisplay:10.37,2013-06-09 11:32:00,
2013-06-09 07:37:00,60.5,56.9,30.08,SE,132,0.0,0.0,88,0.00,BKN,SCT,0.00,65.0,WeatherDisplay:10.37,2013-06-09 11:37:00,
2013-06-09 07:42:00,60.7,57.1,30.08,SE,132,0.0,0.0,88,0.00,BKN,SCT,0.00,67.0,WeatherDisplay:10.37,2013-06-09 11:42:00,
2013-06-09 07:47:00,60.9,57.0,30.08,SE,131,0.0,0.0,87,0.00,BKN,SCT,0.00,69.0,WeatherDisplay:10.37,2013-06-09 11:47:00,
2013-06-09 07:52:00,61.2,57.3,30.08,SE,131,0.0,0.0,87,0.00,BKN,SCT,0.00,69.0,WeatherDisplay:10.37,2013-06-09 11:52:00,
2013-06-09 07:57:00,61.4,57.2,30.08,SE,131,0.0,0.0,86,0.00,BKN,SCT,0.00,67.0,WeatherDisplay:10.37,2013-06-09 11:57:00,
2013-06-09 08:02:00,61.7,56.8,30.08,SE,131,0.0,1.2,84,0.00,OVC,SCT,0.00,65.0,WeatherDisplay:10.37,2013-06-09 12:02:00,
2013-06-09 08:07:00,62.0,57.1,30.08,SE,130,0.0,0.0,84,0.00,OVC,SCT,0.00,67.0,WeatherDisplay:10.37,2013-06-09 12:07:00,
2013-06-09 08:12:00,62.2,56.6,30.08,SSE,150,0.3,1.0,82,0.00,OVC,SCT,0.00,81.0,WeatherDisplay:10.37,2013-06-09 12:12:00,
2013-06-09 08:17:00,62.7,57.1,30.08,SE,128,0.0,2.3,82,0.00,OVC,SCT,0.00,70.0,WeatherDisplay:10.37,2013-06-09 12:17:00,
2013-06-09 08:22:00,63.0,57.1,30.08,ESE,119,1.1,2.3,81,0.00,OVC,SCT,0.00,88.0,WeatherDisplay:10.37,2013-06-09 12:22:00,
2013-06-09 08:27:00,63.5,56.9,30.08,ESE,122,0.6,2.3,79,0.00,OVC,SCT,0.00,116.0,WeatherDisplay:10.37,2013-06-09 12:27:00,
2013-06-09 08:32:00,64.0,57.4,30.08,SE,132,0.0,0.0,79,0.00,OVC,SCT,0.00,137.0,WeatherDisplay:10.37,2013-06-09 12:32:00,
2013-06-09 08:37:00,64.5,57.8,30.08,SSW,204,0.1,1.0,79,0.00,OVC,SCT,0.00,137.0,WeatherDisplay:10.37,2013-06-09 12:37:00,
2013-06-09 08:42:00,64.9,57.9,30.08,ESE,119,0.2,2.3,78,0.00,OVC,SCT,0.00,160.0,WeatherDisplay:10.37,2013-06-09 12:42:00,
2013-06-09 08:47:00,65.2,57.8,30.08,ESE,121,0.8,3.0,77,0.00,OVC,SCT,0.00,148.0,WeatherDisplay:10.37,2013-06-09 12:47:00,
2013-06-09 08:52:00,65.6,57.8,30.08,SE,126,0.4,3.0,76,0.00,OVC,SCT,0.00,146.0,WeatherDisplay:10.37,2013-06-09 12:52:00,
2013-06-09 08:57:00,66.0,57.5,30.08,ESE,122,1.4,3.5,74,0.00,OVC,SCT,0.00,151.0,WeatherDisplay:10.37,2013-06-09 12:57:00,
2013-06-09 09:02:00,66.3,57.8,30.08,SE,138,0.6,1.2,74,0.00,OVC,SCT,0.00,174.0,WeatherDisplay:10.37,2013-06-09 13:02:00,
2013-06-09 09:08:00,66.7,57.8,30.08,ESE,119,0.4,3.5,73,0.00,OVC,SCT,0.00,158.0,WeatherDisplay:10.37,2013-06-09 13:08:00,
2013-06-09 09:13:00,66.9,57.6,30.08,ESE,119,0.8,2.3,72,0.00,OVC,SCT,0.00,127.0,WeatherDisplay:10.37,2013-06-09 13:13:00,
2013-06-09 09:18:00,67.0,57.7,30.08,ESE,121,0.9,3.5,72,0.00,OVC,SCT,0.00,181.0,WeatherDisplay:10.37,2013-06-09 13:18:00,
2013-06-09 09:23:00,67.2,57.5,30.08,SE,127,2.3,3.5,71,0.00,OVC,SCT,0.00,176.0,WeatherDisplay:10.37,2013-06-09 13:23:00,
2013-06-09 09:28:00,67.3,57.6,30.08,ESE,122,1.4,3.5,71,0.00,OVC,SCT,0.00,183.0,WeatherDisplay:10.37,2013-06-09 13:28:00,
2013-06-09 09:33:00,67.3,58.0,30.08,ESE,123,0.2,2.3,72,0.00,OVC,SCT,0.00,195.0,WeatherDisplay:10.37,2013-06-09 13:33:00,
2013-06-09 09:38:00,67.3,57.6,30.08,ESE,123,0.6,2.3,71,0.00,OVC,SCT,0.00,202.0,WeatherDisplay:10.37,2013-06-09 13:38:00,
2013-06-09 09:43:00,67.5,58.2,30.08,ESE,123,0.2,3.5,72,0.00,OVC,SCT,0.00,186.0,WeatherDisplay:10.37,2013-06-09 13:43:00,
2013-06-09 09:48:00,67.7,58.0,30.08,SE,124,1.1,3.5,71,0.00,OVC,SCT,0.00,220.0,WeatherDisplay:10.37,2013-06-09 13:48:00,
2013-06-09 09:53:00,67.9,58.5,30.08,ESE,121,1.3,3.5,72,0.00,OVC,SCT,0.00,193.0,WeatherDisplay:10.37,2013-06-09 13:53:00,
2013-06-09 09:58:00,68.0,58.2,30.08,ESE,122,1.7,3.5,71,0.00,OVC,SCT,0.00,204.0,WeatherDisplay:10.37,2013-06-09 13:58:00,
2013-06-09 10:03:00,68.1,58.3,30.08,NNW,337,0.2,1.2,71,0.00,BKN,SCT,0.00,213.0,WeatherDisplay:10.37,2013-06-09 14:03:00,
2013-06-09 10:08:00,68.2,58.0,30.08,ESE,110,0.0,0.0,70,0.00,BKN,SCT,0.00,172.0,WeatherDisplay:10.37,2013-06-09 14:08:00,
2013-06-09 10:13:00,68.2,58.4,30.08,ESE,110,0.0,1.2,71,0.00,BKN,SCT,0.00,128.0,WeatherDisplay:10.37,2013-06-09 14:13:00,
2013-06-09 10:18:00,68.0,57.4,30.08,ESE,123,0.0,1.2,69,0.00,BKN,SCT,0.00,95.0,WeatherDisplay:10.37,2013-06-09 14:18:00,
2013-06-09 10:23:00,67.9,57.8,30.07,South,178,0.0,0.0,70,0.00,BKN,SCT,0.00,81.0,WeatherDisplay:10.37,2013-06-09 14:23:00,
2013-06-09 10:28:00,67.7,57.6,30.07,SE,144,0.2,1.2,70,0.00,BKN,SCT,0.00,67.0,WeatherDisplay:10.37,2013-06-09 14:28:00,
2013-06-09 10:33:00,67.6,57.9,30.07,ESE,121,0.0,0.0,71,0.00,BKN,SCT,0.00,62.0,WeatherDisplay:10.37,2013-06-09 14:33:00,
2013-06-09 10:38:00,67.6,57.5,30.07,ESE,121,1.0,2.3,70,0.00,BKN,SCT,0.00,77.0,WeatherDisplay:10.37,2013-06-09 14:38:00,
2013-06-09 10:43:00,67.5,57.4,30.07,ESE,123,0.9,3.5,70,0.00,BKN,SCT,0.00,132.0,WeatherDisplay:10.37,2013-06-09 14:43:00,
2013-06-09 10:48:00,67.7,57.6,30.07,SE,126,1.7,3.5,70,0.00,BKN,SCT,0.00,155.0,WeatherDisplay:10.37,2013-06-09 14:48:00,
2013-06-09 10:53:00,68.0,57.8,30.07,SE,126,0.8,4.0,70,0.00,BKN,SCT,0.00,202.0,WeatherDisplay:10.37,2013-06-09 14:53:00,
2013-06-09 10:58:00,68.5,58.3,30.07,SSE,151,0.1,1.2,70,0.00,BKN,SCT,0.00,278.0,WeatherDisplay:10.37,2013-06-09 14:58:00,
2013-06-09 11:03:00,69.0,58.0,30.07,SE,128,0.1,2.0,68,0.00,BKN,SCT,0.00,323.0,WeatherDisplay:10.37,2013-06-09 15:03:00,
2013-06-09 11:08:00,69.7,58.7,30.07,ESE,121,2.3,3.5,68,0.00,BKN,SCT,0.00,420.0,WeatherDisplay:10.37,2013-06-09 15:08:00,
2013-06-09 11:13:00,70.3,58.8,30.07,SE,137,0.7,2.3,67,0.00,BKN,SCT,0.00,311.0,WeatherDisplay:10.37,2013-06-09 15:13:00,
2013-06-09 11:18:00,71.0,59.9,30.07,SSE,150,0.0,0.0,68,0.00,BKN,SCT,0.00,436.0,WeatherDisplay:10.37,2013-06-09 15:18:00,
2013-06-09 11:23:00,71.9,59.5,30.07,ESE,117,1.8,4.0,65,0.00,BKN,SCT,0.00,610.0,WeatherDisplay:10.37,2013-06-09 15:23:00,
2013-06-09 11:28:00,72.2,58.9,30.07,SE,128,0.2,1.0,63,0.00,BKN,SCT,0.00,371.0,WeatherDisplay:10.37,2013-06-09 15:28:00,
2013-06-09 11:33:00,72.3,58.1,30.07,ESE,123,1.9,4.0,61,0.00,BKN,SCT,0.00,302.0,WeatherDisplay:10.37,2013-06-09 15:33:00,
2013-06-09 11:38:00,72.1,58.4,30.07,ESE,121,0.4,1.2,62,0.00,BKN,SCT,0.00,283.0,WeatherDisplay:10.37,2013-06-09 15:38:00,
2013-06-09 11:43:00,72.3,58.5,30.07,SE,127,1.3,3.5,62,0.00,BKN,SCT,0.00,427.0,WeatherDisplay:10.37,2013-06-09 15:43:00,
2013-06-09 11:48:00,72.7,58.5,30.07,SE,132,0.6,3.5,61,0.00,BKN,SCT,0.00,566.0,WeatherDisplay:10.37,2013-06-09 15:48:00,
2013-06-09 11:53:00,73.0,58.3,30.07,ESE,119,0.2,1.2,60,0.00,BKN,SCT,0.00,325.0,WeatherDisplay:10.37,2013-06-09 15:53:00,
2013-06-09 11:58:00,73.1,58.8,30.07,SE,124,0.1,1.2,61,0.00,BKN,SCT,0.00,332.0,WeatherDisplay:10.37,2013-06-09 15:58:00,
2013-06-09 12:03:00,73.2,58.5,30.07,SW,222,0.3,1.2,60,0.00,OVC,SCT,0.00,425.0,WeatherDisplay:10.37,2013-06-09 16:03:00,
2013-06-09 12:08:00,73.6,58.9,30.06,ESE,120,1.5,3.5,60,0.00,OVC,SCT,0.00,610.0,WeatherDisplay:10.37,2013-06-09 16:08:00,
2013-06-09 12:13:00,74.3,59.0,30.06,SE,129,0.7,2.3,59,0.00,OVC,SCT,0.00,497.0,WeatherDisplay:10.37,2013-06-09 16:13:00,
2013-06-09 12:18:00,74.4,58.7,30.06,SE,135,0.6,2.3,58,0.00,OVC,SCT,0.00,388.0,WeatherDisplay:10.37,2013-06-09 16:18:00,
2013-06-09 12:23:00,74.8,58.5,30.06,ESE,118,1.9,3.5,57,0.00,OVC,SCT,0.00,847.0,WeatherDisplay:10.37,2013-06-09 16:23:00,
2013-06-09 12:28:00,75.5,59.7,30.06,SE,131,0.6,1.2,58,0.00,OVC,SCT,0.00,777.0,WeatherDisplay:10.37,2013-06-09 16:28:00,
2013-06-09 12:33:00,76.2,59.4,30.05,ESE,117,0.2,2.3,56,0.00,OVC,SCT,0.00,860.0,WeatherDisplay:10.37,2013-06-09 16:33:00,
2013-06-09 12:38:00,76.3,59.4,30.05,ESE,115,0.3,3.0,56,0.00,OVC,SCT,0.00,831.0,WeatherDisplay:10.37,2013-06-09 16:38:00,
2013-06-09 12:43:00,76.4,59.0,30.05,SSW,209,1.0,2.0,55,0.00,OVC,SCT,0.00,868.0,WeatherDisplay:10.37,2013-06-09 16:43:00,
2013-06-09 12:48:00,76.6,59.2,30.05,ESE,123,0.7,2.3,55,0.00,OVC,SCT,0.00,775.0,WeatherDisplay:10.37,2013-06-09 16:48:00,
2013-06-09 12:53:00,76.9,59.0,30.05,ESE,109,0.8,3.5,54,0.00,OVC,SCT,0.00,784.0,WeatherDisplay:10.37,2013-06-09 16:53:00,
2013-06-09 12:58:00,76.7,58.3,30.05,ESE,115,2.5,8.1,53,0.00,OVC,SCT,0.00,744.0,WeatherDisplay:10.37,2013-06-09 16:58:00,
2013-06-09 13:03:00,76.3,58.9,30.05,WSW,237,0.9,2.3,55,0.00,BKN,SCT,0.00,427.0,WeatherDisplay:10.37,2013-06-09 17:03:00,
2013-06-09 13:08:00,75.8,58.5,30.05,ESE,120,1.5,4.0,55,0.00,BKN,SCT,0.00,376.0,WeatherDisplay:10.37,2013-06-09 17:08:00,
2013-06-09 13:13:00,75.6,58.8,30.05,SW,217,1.7,4.6,56,0.00,BKN,SCT,0.00,427.0,WeatherDisplay:10.37,2013-06-09 17:13:00,
2013-06-09 13:18:00,75.7,58.9,30.04,ESE,119,2.6,4.6,56,0.00,BKN,SCT,0.00,306.0,WeatherDisplay:10.37,2013-06-09 17:18:00,
2013-06-09 13:23:00,75.5,58.2,30.05,ESE,105,1.0,5.8,55,0.00,BKN,SCT,0.00,172.0,WeatherDisplay:10.37,2013-06-09 17:23:00,
2013-06-09 13:28:00,75.0,57.7,30.04,SE,132,1.2,3.0,55,0.00,BKN,SCT,0.00,181.0,WeatherDisplay:10.37,2013-06-09 17:28:00,
2013-06-09 13:33:00,74.7,57.5,30.04,ESE,119,3.4,3.5,55,0.00,BKN,SCT,0.00,207.0,WeatherDisplay:10.37,2013-06-09 17:33:00,
2013-06-09 13:38:00,74.5,57.3,30.04,ESE,119,1.9,8.0,55,0.00,BKN,SCT,0.00,169.0,WeatherDisplay:10.37,2013-06-09 17:38:00,
2013-06-09 13:43:00,74.4,57.7,30.03,SE,127,0.9,3.5,56,0.00,BKN,SCT,0.00,190.0,WeatherDisplay:10.37,2013-06-09 17:43:00,
2013-06-09 13:48:00,74.4,57.2,30.04,SE,126,1.4,3.5,55,0.00,BKN,SCT,0.00,155.0,WeatherDisplay:10.37,2013-06-09 17:48:00,
2013-06-09 13:53:00,74.2,57.0,30.04,ESE,111,1.2,3.5,55,0.00,BKN,SCT,0.00,148.0,WeatherDisplay:10.37,2013-06-09 17:53:00,
2013-06-09 13:58:00,74.1,56.9,30.04,ESE,109,2.2,4.0,55,0.00,BKN,SCT,0.00,123.0,WeatherDisplay:10.37,2013-06-09 17:58:00,
2013-06-09 14:03:00,73.8,56.6,30.04,ESE,114,1.6,4.6,55,0.00,BKN,SCT,0.00,77.0,WeatherDisplay:10.37,2013-06-09 18:03:00,
2013-06-09 14:08:00,73.4,56.2,30.04,ESE,122,2.1,4.6,55,0.00,BKN,SCT,0.00,86.0,WeatherDisplay:10.37,2013-06-09 18:08:00,
2013-06-09 14:13:00,73.1,56.5,30.04,ESE,114,0.6,5.8,56,0.00,BKN,SCT,0.00,98.0,WeatherDisplay:10.37,2013-06-09 18:13:00,
2013-06-09 14:18:00,73.1,56.5,30.03,SE,126,0.2,1.0,56,0.00,BKN,SCT,0.00,100.0,WeatherDisplay:10.37,2013-06-09 18:18:00,
2013-06-09 14:23:00,73.0,56.9,30.03,SE,125,1.8,2.3,57,0.00,BKN,SCT,0.00,120.0,WeatherDisplay:10.37,2013-06-09 18:23:00,
2013-06-09 14:28:00,73.0,56.4,30.03,SSW,204,0.5,2.3,56,0.00,BKN,SCT,0.00,114.0,WeatherDisplay:10.37,2013-06-09 18:28:00,
2013-06-09 14:33:00,73.0,56.4,30.03,SE,126,0.7,3.5,56,0.00,BKN,SCT,0.00,98.0,WeatherDisplay:10.37,2013-06-09 18:33:00,
2013-06-09 14:38:00,73.0,56.4,30.03,ESE,119,1.7,4.0,56,0.00,BKN,SCT,0.00,70.0,WeatherDisplay:10.37,2013-06-09 18:38:00,
2013-06-09 14:43:00,72.9,56.3,30.03,South,170,1.7,3.5,56,0.00,BKN,SCT,0.00,95.0,WeatherDisplay:10.37,2013-06-09 18:43:00,
2013-06-09 14:48:00,72.8,58.1,30.02,ESE,121,1.1,3.5,60,0.00,BKN,SCT,0.00,172.0,WeatherDisplay:10.37,2013-06-09 18:48:00,
2013-06-09 14:53:00,72.7,59.4,30.02,ESE,121,0.5,3.5,63,0.00,BKN,SCT,0.00,239.0,WeatherDisplay:10.37,2013-06-09 18:53:00,
2013-06-09 14:58:00,72.9,59.1,30.02,SE,124,0.4,2.3,62,0.00,BKN,SCT,0.00,408.0,WeatherDisplay:10.37,2013-06-09 18:58:00,
2013-06-09 15:03:00,73.4,59.1,30.02,SE,130,2.8,5.0,61,0.00,-RA,SCT,0.00,378.0,WeatherDisplay:10.37,2013-06-09 19:03:00,
2013-06-09 15:08:00,74.0,58.3,30.02,SE,125,0.6,2.3,58,0.00,-RA,SCT,0.00,283.0,WeatherDisplay:10.37,2013-06-09 19:08:00,
2013-06-09 15:13:00,74.5,58.3,30.01,ESE,122,0.0,1.2,57,0.00,-RA,SCT,0.00,278.0,WeatherDisplay:10.37,2013-06-09 19:13:00,
2013-06-09 15:18:00,74.6,57.9,30.02,ESE,115,1.5,4.6,56,0.00,-RA,SCT,0.00,229.0,WeatherDisplay:10.37,2013-06-09 19:18:00,
2013-06-09 15:23:00,74.7,58.5,30.01,ESE,123,1.6,3.5,57,0.00,-RA,SCT,0.00,369.0,WeatherDisplay:10.37,2013-06-09 19:23:00,
2013-06-09 15:28:00,74.9,57.6,30.01,ESE,117,0.9,5.8,55,0.00,-RA,SCT,0.00,299.0,WeatherDisplay:10.37,2013-06-09 19:28:00,
2013-06-09 15:33:00,74.9,57.6,30.01,ESE,123,1.8,4.0,55,0.00,-RA,SCT,0.00,705.0,WeatherDisplay:10.37,2013-06-09 19:33:00,
2013-06-09 15:38:00,75.4,59.1,30.01,SSW,209,0.6,3.5,57,0.00,-RA,SCT,0.00,469.0,WeatherDisplay:10.37,2013-06-09 19:38:00,
2013-06-09 15:43:00,75.8,58.5,30.00,West,265,0.5,3.5,55,0.00,-RA,SCT,0.00,417.0,WeatherDisplay:10.37,2013-06-09 19:43:00,
2013-06-09 15:48:00,76.1,58.8,30.00,SSE,163,0.0,1.2,55,0.00,-RA,SCT,0.00,721.0,WeatherDisplay:10.37,2013-06-09 19:48:00,
2013-06-09 15:53:00,76.5,58.1,30.00,ESE,104,1.8,4.0,53,0.00,-RA,SCT,0.00,701.0,WeatherDisplay:10.37,2013-06-09 19:53:00,
2013-06-09 15:58:00,76.9,57.9,29.99,SE,135,0.1,3.5,52,0.00,-RA,SCT,0.00,631.0,WeatherDisplay:10.37,2013-06-09 19:58:00,
2013-06-09 16:03:00,77.4,58.4,29.99,SW,228,1.0,3.5,52,0.00,OVC,SCT,0.00,659.0,WeatherDisplay:10.37,2013-06-09 20:03:00,
2013-06-09 16:08:00,77.7,58.1,29.99,ESE,121,0.7,3.5,51,0.00,OVC,SCT,0.00,571.0,WeatherDisplay:10.37,2013-06-09 20:08:00,
2013-06-09 16:13:00,77.5,57.4,29.98,ESE,117,0.5,3.5,50,0.00,OVC,SCT,0.00,568.0,WeatherDisplay:10.37,2013-06-09 20:13:00,
2013-06-09 16:18:00,77.5,57.9,29.98,WNW,288,0.0,1.2,51,0.00,OVC,SCT,0.00,503.0,WeatherDisplay:10.37,2013-06-09 20:18:00,
2013-06-09 16:23:00,77.4,57.9,29.98,SE,126,0.5,4.6,51,0.00,OVC,SCT,0.00,513.0,WeatherDisplay:10.37,2013-06-09 20:23:00,
2013-06-09 16:28:00,77.4,58.4,29.98,ESE,117,1.5,8.0,52,0.00,OVC,SCT,0.00,339.0,WeatherDisplay:10.37,2013-06-09 20:28:00,
2013-06-09 16:33:00,77.0,57.5,29.98,West,266,0.4,3.5,51,0.00,OVC,SCT,0.00,229.0,WeatherDisplay:10.37,2013-06-09 20:33:00,
2013-06-09 16:38:00,76.4,57.5,29.97,South,190,0.4,2.0,52,0.00,OVC,SCT,0.00,178.0,WeatherDisplay:10.37,2013-06-09 20:38:00,
2013-06-09 16:43:00,76.1,58.2,29.97,SE,135,0.1,1.2,54,0.00,OVC,SCT,0.00,125.0,WeatherDisplay:10.37,2013-06-09 20:43:00,
2013-06-09 16:48:00,75.9,57.0,29.97,ESE,121,0.5,6.9,52,0.00,OVC,SCT,0.00,141.0,WeatherDisplay:10.37,2013-06-09 20:48:00,
2013-06-09 16:53:00,75.7,56.3,29.97,SE,138,0.9,4.6,51,0.00,OVC,SCT,0.00,132.0,WeatherDisplay:10.37,2013-06-09 20:53:00,
2013-06-09 16:58:00,75.6,56.7,29.97,SW,236,0.2,1.2,52,0.00,OVC,SCT,0.00,213.0,WeatherDisplay:10.37,2013-06-09 20:58:00,
2013-06-09 17:03:00,75.8,56.4,29.97,ESE,121,0.4,3.5,51,0.00,OVC,SCT,0.00,327.0,WeatherDisplay:10.37,2013-06-09 21:03:00,
2013-06-09 17:08:00,76.3,57.4,29.97,ESE,121,0.4,3.0,52,0.00,OVC,SCT,0.00,392.0,WeatherDisplay:10.37,2013-06-09 21:08:00,
2013-06-09 17:13:00,77.0,56.4,29.96,ESE,119,1.2,3.5,49,0.00,OVC,SCT,0.00,471.0,WeatherDisplay:10.37,2013-06-09 21:13:00,
2013-06-09 17:18:00,77.4,56.2,29.96,ESE,118,1.7,6.9,48,0.00,OVC,SCT,0.00,450.0,WeatherDisplay:10.37,2013-06-09 21:18:00,
2013-06-09 17:23:00,77.6,56.4,29.96,SE,125,2.4,8.1,48,0.00,OVC,SCT,0.00,394.0,WeatherDisplay:10.37,2013-06-09 21:23:00,
2013-06-09 17:28:00,77.5,55.7,29.96,SE,136,1.4,2.3,47,0.00,OVC,SCT,0.00,392.0,WeatherDisplay:10.37,2013-06-09 21:28:00,
2013-06-09 17:33:00,77.4,56.7,29.96,WNW,290,0.5,2.3,49,0.00,OVC,SCT,0.00,214.0,WeatherDisplay:10.37,2013-06-09 21:33:00,
2013-06-09 17:38:00,77.2,56.0,29.95,ESE,119,1.3,2.0,48,0.00,OVC,SCT,0.00,178.0,WeatherDisplay:10.37,2013-06-09 21:38:00,
2013-06-09 17:43:00,76.9,56.3,29.95,ESE,123,2.1,3.5,49,0.00,OVC,SCT,0.00,165.0,WeatherDisplay:10.37,2013-06-09 21:43:00,
2013-06-09 17:48:00,76.7,56.1,29.96,South,180,1.0,4.6,49,0.00,OVC,SCT,0.00,171.0,WeatherDisplay:10.37,2013-06-09 21:48:00,
2013-06-09 17:53:00,76.6,56.0,29.96,ESE,118,0.6,2.3,49,0.00,OVC,SCT,0.00,343.0,WeatherDisplay:10.37,2013-06-09 21:53:00,
2013-06-09 17:58:00,76.4,55.8,29.96,ESE,121,1.0,2.3,49,0.00,OVC,SCT,0.00,188.0,WeatherDisplay:10.37,2013-06-09 21:58:00,
2013-06-09 18:03:00,76.2,56.7,29.96,SE,128,1.3,5.0,51,0.00,OVC,SCT,0.00,137.0,WeatherDisplay:10.37,2013-06-09 22:03:00,
2013-06-09 18:08:00,75.9,56.5,29.95,ESE,112,2.6,6.0,51,0.00,OVC,SCT,0.00,153.0,WeatherDisplay:10.37,2013-06-09 22:08:00,
2013-06-09 18:13:00,75.7,56.3,29.95,SE,128,0.6,3.5,51,0.00,OVC,SCT,0.00,188.0,WeatherDisplay:10.37,2013-06-09 22:13:00,
2013-06-09 18:18:00,75.5,56.1,29.95,ESE,123,0.9,3.5,51,0.00,OVC,SCT,0.00,193.0,WeatherDisplay:10.37,2013-06-09 22:18:00,
2013-06-09 18:23:00,75.3,56.5,29.95,ESE,105,0.7,4.0,52,0.00,OVC,SCT,0.00,151.0,WeatherDisplay:10.37,2013-06-09 22:23:00,
2013-06-09 18:28:00,75.3,57.5,29.95,ESE,114,0.7,2.3,54,0.00,OVC,SCT,0.00,178.0,WeatherDisplay:10.37,2013-06-09 22:28:00,
2013-06-09 18:33:00,75.3,57.5,29.95,SE,132,0.0,6.9,54,0.00,OVC,SCT,0.00,183.0,WeatherDisplay:10.37,2013-06-09 22:33:00,
2013-06-09 18:38:00,75.2,57.4,29.95,ESE,119,0.3,2.3,54,0.00,OVC,SCT,0.00,250.0,WeatherDisplay:10.37,2013-06-09 22:38:00,
2013-06-09 18:43:00,75.2,57.4,29.95,ESE,114,0.1,1.2,54,0.00,OVC,SCT,0.00,223.0,WeatherDisplay:10.37,2013-06-09 22:43:00,
2013-06-09 18:48:00,75.1,57.3,29.95,SSE,157,0.6,3.5,54,0.00,OVC,SCT,0.00,176.0,WeatherDisplay:10.37,2013-06-09 22:48:00,
2013-06-09 18:53:00,74.7,56.9,29.95,ESE,105,1.1,4.6,54,0.00,OVC,SCT,0.00,107.0,WeatherDisplay:10.37,2013-06-09 22:53:00,
2013-06-09 18:58:00,74.4,57.2,29.95,ESE,116,2.4,7.0,55,0.00,OVC,SCT,0.00,109.0,WeatherDisplay:10.37,2013-06-09 22:58:00,
2013-06-09 19:03:00,74.2,57.5,29.95,SSE,164,0.1,2.3,56,0.00,OVC,SCT,0.00,97.0,WeatherDisplay:10.37,2013-06-09 23:03:00,
2013-06-09 19:08:00,74.1,57.4,29.95,NW,326,0.5,2.3,56,0.00,OVC,SCT,0.00,98.0,WeatherDisplay:10.37,2013-06-09 23:08:00,
2013-06-09 19:13:00,73.9,57.2,29.95,ESE,115,0.2,2.3,56,0.00,OVC,SCT,0.00,88.0,WeatherDisplay:10.37,2013-06-09 23:13:00,
2013-06-09 19:18:00,73.8,57.1,29.95,ESE,117,0.8,3.5,56,0.00,OVC,SCT,0.00,77.0,WeatherDisplay:10.37,2013-06-09 23:18:00,
2013-06-09 19:23:00,73.6,56.9,29.95,SE,126,0.5,3.5,56,0.00,OVC,SCT,0.00,69.0,WeatherDisplay:10.37,2013-06-09 23:23:00,
2013-06-09 19:28:00,73.4,57.2,29.95,ESE,113,0.0,1.0,57,0.00,OVC,SCT,0.00,67.0,WeatherDisplay:10.37,2013-06-09 23:28:00,
2013-06-09 19:33:00,73.2,57.1,29.95,WSW,240,0.1,1.2,57,0.00,OVC,SCT,0.00,65.0,WeatherDisplay:10.37,2013-06-09 23:33:00,
2013-06-09 19:38:00,73.1,57.0,29.95,ESE,120,0.6,2.3,57,0.00,OVC,SCT,0.00,58.0,WeatherDisplay:10.37,2013-06-09 23:38:00,
2013-06-09 19:43:00,73.0,57.3,29.94,ESE,123,0.1,1.2,58,0.00,OVC,SCT,0.00,51.0,WeatherDisplay:10.37,2013-06-09 23:43:00,
2013-06-09 19:48:00,72.9,57.3,29.94,ESE,121,0.8,4.0,58,0.00,OVC,SCT,0.00,47.0,WeatherDisplay:10.37,2013-06-09 23:48:00,
2013-06-09 19:53:00,72.9,57.3,29.94,ESE,109,0.4,1.2,58,0.00,OVC,SCT,0.00,44.0,WeatherDisplay:10.37,2013-06-09 23:53:00,
2013-06-09 19:58:00,72.7,57.5,29.94,NNW,331,0.3,3.5,59,0.00,OVC,SCT,0.00,40.0,WeatherDisplay:10.37,2013-06-09 23:58:00,
2013-06-09 20:03:00,72.5,56.9,29.94,SSE,150,0.4,2.3,58,0.00,OVC,SCT,0.00,35.0,WeatherDisplay:10.37,2013-06-10 00:03:00,
2013-06-09 20:08:00,72.3,56.7,29.94,ESE,115,1.6,4.6,58,0.00,OVC,SCT,0.00,32.0,WeatherDisplay:10.37,2013-06-10 00:08:00,
2013-06-09 20:13:00,72.1,56.0,29.94,SE,133,0.1,3.5,57,0.00,OVC,SCT,0.00,26.0,WeatherDisplay:10.37,2013-06-10 00:13:00,
2013-06-09 20:18:00,71.9,56.3,29.94,WSW,257,0.4,2.3,58,0.00,OVC,SCT,0.00,23.0,WeatherDisplay:10.37,2013-06-10 00:18:00,
2013-06-09 20:23:00,71.8,56.2,29.94,NW,323,0.6,2.3,58,0.00,OVC,SCT,0.00,16.0,WeatherDisplay:10.37,2013-06-10 00:23:00,
2013-06-09 20:28:00,71.6,55.6,29.94,SSE,159,0.2,1.2,57,0.00,OVC,SCT,0.00,14.0,WeatherDisplay:10.37,2013-06-10 00:28:00,
2013-06-09 20:33:00,71.3,55.3,29.94,SSW,202,0.0,0.0,57,0.00,OVC,SCT,0.00,12.0,WeatherDisplay:10.37,2013-06-10 00:33:00,
2013-06-09 20:38:00,71.1,54.6,29.94,ESE,123,1.3,3.5,56,0.00,OVC,SCT,0.00,9.0,WeatherDisplay:10.37,2013-06-10 00:38:00,
2013-06-09 20:43:00,70.8,54.3,29.94,ESE,123,1.2,3.5,56,0.00,OVC,SCT,0.00,7.0,WeatherDisplay:10.37,2013-06-10 00:43:00,
2013-06-09 20:48:00,70.5,54.0,29.94,ESE,105,0.5,1.2,56,0.00,OVC,SCT,0.00,5.0,WeatherDisplay:10.37,2013-06-10 00:48:00,
2013-06-09 20:53:00,70.3,53.9,29.94,South,175,0.2,1.2,56,0.00,OVC,SCT,0.00,5.0,WeatherDisplay:10.37,2013-06-10 00:53:00,
2013-06-09 20:58:00,70.1,53.7,29.94,ESE,118,0.6,7.0,56,0.00,OVC,SCT,0.00,0.0,WeatherDisplay:10.37,2013-06-10 00:58:00,
2013-06-09 21:03:00,70.0,53.6,29.94,ESE,123,0.2,1.2,56,0.00,OVC,SCT,0.00,0.0,WeatherDisplay:10.37,2013-06-10 01:03:00,
2013-06-09 21:08:00,69.8,53.4,29.94,East,95,0.6,1.2,56,0.00,OVC,SCT,0.00,0.0,WeatherDisplay:10.37,2013-06-10 01:08:00,
2013-06-09 21:13:00,69.7,53.3,29.94,SE,128,0.8,3.5,56,0.00,OVC,SCT,0.00,0.0,WeatherDisplay:10.37,2013-06-10 01:13:00,
2013-06-09 21:18:00,69.6,53.2,29.94,ESE,119,1.1,3.5,56,0.00,OVC,SCT,0.00,0.0,WeatherDisplay:10.37,2013-06-10 01:18:00,
2013-06-09 21:23:00,69.5,53.1,29.94,ESE,120,0.1,1.2,56,0.00,OVC,SCT,0.00,0.0,WeatherDisplay:10.37,2013-06-10 01:23:00,
2013-06-09 21:28:00,69.4,53.0,29.94,SE,136,0.5,2.3,56,0.00,OVC,SCT,0.00,0.0,WeatherDisplay:10.37,2013-06-10 01:28:00,
2013-06-09 21:33:00,69.2,52.8,29.94,West,279,0.1,1.2,56,0.00,OVC,SCT,0.00,0.0,WeatherDisplay:10.37,2013-06-10 01:33:00,
2013-06-09 21:38:00,69.0,52.6,29.94,ESE,112,0.0,0.0,56,0.00,OVC,SCT,0.00,0.0,WeatherDisplay:10.37,2013-06-10 01:38:00,
2013-06-09 21:43:00,68.9,53.0,29.94,SE,124,0.0,1.2,57,0.00,OVC,SCT,0.00,0.0,WeatherDisplay:10.37,2013-06-10 01:43:00,
2013-06-09 21:48:00,68.7,52.4,29.94,WSW,254,0.0,0.0,56,0.00,OVC,SCT,0.00,0.0,WeatherDisplay:10.37,2013-06-10 01:48:00,
2013-06-09 21:53:00,68.6,52.3,29.94,South,184,0.0,0.0,56,0.00,OVC,SCT,0.00,0.0,WeatherDisplay:10.37,2013-06-10 01:53:00,
2013-06-09 21:58:00,68.5,52.7,29.94,South,173,0.2,1.2,57,0.00,OVC,SCT,0.00,0.0,WeatherDisplay:10.37,2013-06-10 01:58:00,
2013-06-09 22:03:00,68.4,52.6,29.94,ESE,105,0.0,1.2,57,0.00,OVC,SCT,0.00,0.0,WeatherDisplay:10.37,2013-06-10 02:03:00,
2013-06-09 22:08:00,68.4,52.6,29.94,NE,46,0.1,1.2,57,0.00,OVC,SCT,0.00,0.0,WeatherDisplay:10.37,2013-06-10 02:08:00,
2013-06-09 22:13:00,68.3,52.5,29.94,WSW,241,0.3,1.2,57,0.00,OVC,SCT,0.00,0.0,WeatherDisplay:10.37,2013-06-10 02:13:00,
2013-06-09 22:18:00,68.3,52.5,29.94,WNW,292,0.2,2.3,57,0.00,OVC,SCT,0.00,0.0,WeatherDisplay:10.37,2013-06-10 02:18:00,
2013-06-09 22:23:00,68.2,52.4,29.94,West,279,0.0,0.0,57,0.00,OVC,SCT,0.00,0.0,WeatherDisplay:10.37,2013-06-10 02:23:00,
2013-06-09 22:28:00,68.1,52.8,29.94,West,279,0.0,0.0,58,0.00,OVC,SCT,0.00,0.0,WeatherDisplay:10.37,2013-06-10 02:28:00,
2013-06-09 22:33:00,67.9,52.6,29.94,SE,131,0.4,1.2,58,0.00,OVC,SCT,0.00,0.0,WeatherDisplay:10.37,2013-06-10 02:33:00,
2013-06-09 22:38:00,67.8,52.5,29.94,ESE,123,0.2,1.2,58,0.00,OVC,SCT,0.00,0.0,WeatherDisplay:10.37,2013-06-10 02:38:00,
2013-06-09 22:43:00,67.8,52.5,29.94,NNE,25,0.1,1.2,58,0.00,OVC,SCT,0.00,0.0,WeatherDisplay:10.37,2013-06-10 02:43:00,
2013-06-09 22:48:00,67.7,52.9,29.94,ESE,119,0.6,3.0,59,0.00,OVC,SCT,0.00,0.0,WeatherDisplay:10.37,2013-06-10 02:48:00,
2013-06-09 22:53:00,67.7,53.3,29.94,ESE,117,0.0,1.2,60,0.00,OVC,SCT,0.00,0.0,WeatherDisplay:10.37,2013-06-10 02:53:00,
2013-06-09 22:58:00,67.6,53.2,29.94,SE,125,0.1,1.2,60,0.00,OVC,SCT,0.00,0.0,WeatherDisplay:10.37,2013-06-10 02:58:00,
2013-06-09 23:03:00,67.7,53.3,29.94,ESE,122,0.6,3.5,60,0.00,OVC,SCT,0.00,0.0,WeatherDisplay:10.37,2013-06-10 03:03:00,
2013-06-09 23:08:00,67.6,53.7,29.94,SE,126,1.6,3.5,61,0.00,OVC,SCT,0.00,0.0,WeatherDisplay:10.37,2013-06-10 03:08:00,
2013-06-09 23:13:00,67.5,54.0,29.94,ESE,121,0.8,3.5,62,0.00,OVC,SCT,0.00,0.0,WeatherDisplay:10.37,2013-06-10 03:13:00,
2013-06-09 23:18:00,67.2,55.0,29.94,ESE,122,1.4,2.3,65,0.00,OVC,SCT,0.00,0.0,WeatherDisplay:10.37,2013-06-10 03:18:00,
2013-06-09 23:23:00,66.8,55.5,29.93,ESE,118,1.0,3.5,67,0.00,OVC,SCT,0.00,0.0,WeatherDisplay:10.37,2013-06-10 03:23:00,
2013-06-09 23:28:00,66.4,55.5,29.93,ESE,123,0.2,1.2,68,0.00,OVC,SCT,0.00,0.0,WeatherDisplay:10.37,2013-06-10 03:28:00,
2013-06-09 23:33:00,66.0,55.5,29.93,ESE,122,0.1,2.3,69,0.00,OVC,SCT,0.00,0.0,WeatherDisplay:10.37,2013-06-10 03:33:00,
2013-06-09 23:38:00,65.7,56.0,29.92,ESE,121,0.0,1.0,71,0.00,OVC,SCT,0.00,0.0,WeatherDisplay:10.37,2013-06-10 03:38:00,
2013-06-09 23:43:00,65.4,56.1,29.92,SE,138,0.0,0.0,72,0.00,OVC,SCT,0.00,0.0,WeatherDisplay:10.37,2013-06-10 03:43:00,
2013-06-09 23:48:00,65.0,56.5,29.92,SE,138,0.1,1.0,74,0.00,OVC,SCT,0.00,0.0,WeatherDisplay:10.37,2013-06-10 03:48:00,
2013-06-09 23:53:00,64.8,56.7,29.92,SE,138,0.0,0.0,75,0.00,OVC,SCT,0.00,0.0,WeatherDisplay:10.37,2013-06-10 03:53:00,
2013-06-09 23:58:00,64.6,56.9,29.92,SE,138,0.0,0.0,76,0.00,OVC,SCT,0.00,0.0,WeatherDisplay:10.37,2013-06-10 03:58:00,